Stevens Point, WI

8:02 PM CDT on October 16, 2019 (GMT -0500)
Stevens Point Municipal

Weather History for KSTE - September, 2019

Change the Weather History Date:

Monday, September 16, 2019

  Actual Average Record
Temperature  
Mean Temperature 70 °F -  
Max Temperature 80 °F 67 °F 95 °F (1948)
Min Temperature 59 °F 46 °F 30 °F (2014)
Cooling Degree Days 4    
Growing Degree Days 20 (Base 50)    
Moisture  
Dew Point 62 °F    
Average Humidity 86    
Maximum Humidity 100    
Minimum Humidity 50    
Precipitation  
Precipitation 0.01 in - - ()
Sea Level Pressure  
Sea Level Pressure 30.12 in    
Wind  
Wind Speed 2 mph (SSE)    
Max Wind Speed 8 mph    
Max Gust Speed -    
Visibility 6 miles    
Events Fog    
Averages and records for this station are not official NWS values.
T = Trace of Precipitation, MM = Missing Value Source: NWS Daily Summary

Daily Weather History Graph

Daily Weather History Graph

Search for Another Location

Airport or City:

Astronomy

Sep. 16, 2019 Rise Set
Actual Time 6:37 AM CDT 7:07 PM CDT
Civil Twilight 6:08 AM CDT 7:36 PM CDT
Nautical Twilight 5:34 AM CDT 8:10 PM CDT
Astronomical Twilight 4:58 AM CDT 8:46 PM CDT
Moon 8:37 PM CDT (9/16) 8:48 AM CDT (9/16)
Length of Visible Light 13h 27m
Length of Day
12h 29m
Waning Gibbous, 94% of the Moon is Illuminated
Sep 16
Waning Gibbous
Sep 21
Last Quarter
Sep 28
New
Oct 5
First Quarter
Oct 13
Full

Hourly Weather History & Observations

Time (CDT) Temp. Heat Index Dew Point Humidity Pressure Visibility Wind Dir Wind Speed Gust Speed Precip Events Conditions
12:15 AM 59.9 °F - 59.9 °F 100% 30.07 in 0.2 mi Calm Calm - N/A Fog Fog
12:35 AM 60.8 °F - 60.8 °F 100% 30.07 in 0.2 mi Calm Calm - N/A Fog Fog
12:55 AM 61.5 °F - 61.5 °F 100% 30.07 in 0.2 mi Calm Calm - N/A Fog Fog
1:15 AM 61.3 °F - 61.3 °F 100% 30.09 in 0.2 mi Calm Calm - N/A Fog Fog
1:35 AM 61.7 °F - 61.7 °F 100% 30.09 in 0.2 mi Calm Calm - N/A Fog Fog
1:55 AM 61.7 °F - 61.7 °F 100% 30.10 in 0.2 mi Calm Calm - N/A Fog Fog
2:15 AM 61.7 °F - 61.7 °F 100% 30.09 in 0.2 mi Calm Calm - N/A Fog Fog
2:35 AM 61.7 °F - 61.7 °F 100% 30.10 in 0.5 mi Calm Calm - N/A Fog Fog
2:55 AM 61.7 °F - 61.7 °F 100% 30.10 in 0.5 mi Calm Calm - N/A Fog Fog
3:15 AM 61.7 °F - 61.7 °F 100% 30.11 in 0.5 mi Calm Calm - N/A Fog Fog
3:35 AM 61.9 °F - 61.9 °F 100% 30.11 in 0.2 mi Calm Calm - N/A Fog Fog
3:55 AM 62.6 °F - 62.6 °F 100% 30.12 in 0.2 mi Calm Calm - N/A Fog Fog
4:15 AM 62.2 °F - 62.2 °F 100% 30.11 in 0.5 mi Calm Calm - N/A Fog Fog
4:35 AM 61.9 °F - 61.9 °F 100% 30.11 in 0.2 mi SE 3.5 mph - N/A Fog Fog
4:55 AM 61.7 °F - 61.7 °F 100% 30.12 in 0.2 mi Calm Calm - N/A Fog Fog
5:15 AM 61.7 °F - 61.7 °F 100% 30.12 in 0.2 mi Calm Calm - N/A Fog Fog
5:35 AM 61.7 °F - 61.7 °F 100% 30.12 in 0.2 mi Calm Calm - N/A Fog Fog
5:55 AM 61.7 °F - 61.7 °F 100% 30.13 in 0.2 mi Calm Calm - N/A Fog Fog
6:15 AM 61.7 °F - 61.7 °F 100% 30.13 in 0.2 mi Calm Calm - N/A Fog Fog
6:35 AM 61.5 °F - 61.5 °F 100% 30.14 in 0.2 mi SSW 3.5 mph - 0.01 in Fog Fog
6:55 AM 61.3 °F - 61.3 °F 100% 30.14 in 0.2 mi Calm Calm - 0.01 in Fog Fog
7:15 AM 61.5 °F - 61.5 °F 100% 30.14 in 0.2 mi Calm Calm - N/A Fog Fog
7:35 AM 61.2 °F - 61.2 °F 100% 30.15 in 0.2 mi Calm Calm - N/A Fog Fog
7:55 AM 61.2 °F - 61.2 °F 100% 30.15 in 0.2 mi Calm Calm - N/A Fog Fog
8:35 AM 61.2 °F - 61.2 °F 100% 30.16 in 0.2 mi Calm Calm - N/A Fog Fog
8:55 AM 61.7 °F - 61.7 °F 100% 30.16 in 0.2 mi Calm Calm - N/A Fog Fog
9:15 AM 62.1 °F - 62.1 °F 100% 30.16 in 0.2 mi Calm Calm - N/A Fog Fog
9:35 AM 62.1 °F - 62.1 °F 100% 30.16 in 0.5 mi SSW 3.5 mph - N/A Fog Fog
9:55 AM 62.8 °F - 62.8 °F 100% 30.16 in 0.8 mi Calm Calm - N/A   Overcast
10:15 AM 63.3 °F - 63.3 °F 100% 30.16 in 1.0 mi Calm Calm - N/A   Overcast
10:35 AM 64.2 °F - 64.2 °F 100% 30.16 in 4.0 mi Calm Calm - N/A   Overcast
10:55 AM 65.1 °F - 65.1 °F 100% 30.16 in 7.0 mi Calm Calm - N/A   Mostly Cloudy
11:15 AM 66.0 °F - 66.0 °F 100% 30.15 in 7.0 mi SE 3.5 mph - N/A   Scattered Clouds
11:35 AM 67.3 °F - 67.3 °F 100% 30.16 in 10.0 mi Calm Calm - N/A   Clear
11:55 AM 72.7 °F - 64.6 °F 76% 30.15 in 10.0 mi South 5.8 mph - N/A   Clear
12:15 PM 74.7 °F - 64.0 °F 69% 30.16 in 10.0 mi South 4.6 mph - N/A   Clear
12:35 PM 75.4 °F - 63.9 °F 67% 30.15 in 10.0 mi SSW 4.6 mph - N/A   Clear
12:55 PM 76.1 °F - 63.1 °F 64% 30.15 in 10.0 mi SSE 6.9 mph - N/A   Clear
1:15 PM 77.0 °F - 62.2 °F 60% 30.14 in 10.0 mi South 8.1 mph - N/A   Clear
1:35 PM 77.4 °F - 61.9 °F 59% 30.14 in 10.0 mi South 5.8 mph - N/A   Clear
1:55 PM 77.9 °F - 61.7 °F 57% 30.13 in 10.0 mi South 8.1 mph - N/A   Clear
2:15 PM 79.0 °F - 61.9 °F 56% 30.13 in 10.0 mi SSW 8.1 mph - N/A   Clear
2:35 PM 78.8 °F - 61.9 °F 56% 30.13 in 10.0 mi SSW 3.5 mph - N/A   Clear
2:55 PM 78.8 °F - 61.3 °F 55% 30.12 in 10.0 mi SSW 4.6 mph - N/A   Clear
3:15 PM 79.0 °F - 60.8 °F 54% 30.12 in 10.0 mi SSW 6.9 mph - N/A   Clear
3:35 PM 80.1 °F 80.9 °F 59.7 °F 50% 30.11 in 10.0 mi SSW 5.8 mph - N/A   Clear
3:55 PM 79.0 °F - 60.1 °F 52% 30.11 in 10.0 mi SSE 5.8 mph - N/A   Clear
4:15 PM 79.3 °F - 59.5 °F 51% 30.11 in 10.0 mi SSE 5.8 mph - N/A   Clear
4:55 PM 78.8 °F - 61.2 °F 55% 30.10 in 10.0 mi SSE 5.8 mph - N/A   Clear
5:15 PM 78.1 °F - 61.5 °F 57% 30.10 in 10.0 mi SSE 6.9 mph - N/A   Clear
5:35 PM 77.7 °F - 61.3 °F 57% 30.10 in 10.0 mi SSE 8.1 mph - N/A   Clear
5:55 PM 77.0 °F - 61.7 °F 59% 30.11 in 10.0 mi SSE 6.9 mph - N/A   Clear
6:15 PM 74.8 °F - 62.2 °F 65% 30.11 in 10.0 mi SE 4.6 mph - N/A   Clear
6:35 PM 73.2 °F - 62.8 °F 70% 30.11 in 10.0 mi SE 4.6 mph - N/A   Clear
6:55 PM 71.6 °F - 62.6 °F 73% 30.11 in 10.0 mi SSE 4.6 mph - N/A   Clear
7:15 PM 69.8 °F - 62.4 °F 77% 30.11 in 10.0 mi SE 3.5 mph - N/A   Clear
7:35 PM 68.9 °F - 62.8 °F 81% 30.11 in 10.0 mi SE 3.5 mph - N/A   Clear
8:15 PM 68.0 °F - 62.6 °F 83% 30.11 in 10.0 mi SSE 3.5 mph - N/A   Clear
8:35 PM 67.1 °F - 61.7 °F 83% 30.12 in 10.0 mi SE 4.6 mph - N/A   Clear
8:55 PM 66.6 °F - 61.9 °F 85% 30.12 in 10.0 mi SE 3.5 mph - N/A   Clear
9:35 PM 65.5 °F - 64.9 °F 98% 30.12 in 10.0 mi ESE 4.6 mph - N/A   Clear
9:55 PM 64.4 °F - 64.4 °F 100% 30.13 in 10.0 mi Calm Calm - N/A   Clear
10:15 PM 64.4 °F - 64.4 °F 100% 30.13 in 10.0 mi Calm Calm - N/A   Clear
10:35 PM 63.9 °F - 63.9 °F 100% 30.13 in 10.0 mi SE 3.5 mph - N/A   Clear
11:15 PM 62.2 °F - 62.2 °F 100% 30.13 in 10.0 mi Calm Calm - N/A   Clear
11:35 PM 61.7 °F - 61.7 °F 100% 30.14 in 10.0 mi Calm Calm - N/A   Clear
11:55 PM 61.2 °F - 61.2 °F 100% 30.14 in 10.0 mi Calm Calm - N/A   Clear